Lexington Weather

Lexington, Massachusetts, USA

49°F
12/8/2022 2:34pm 
  • Lexington Conditions: Clear
  • Temperature: 48.9°F / 9.4°CColder 0.9°F than last hour.
  • Dew Point: 35.6°F 
  • Relative Humidity: 60%Increased 2.0% since last hour.
  • Wind: Wind from N N 3 mph, 10-min avg: 4 mph, gust: 10 mph
  • Barometer: 30.07 in Steady
  • Visibility: 10 miles
  • Rain Today: 0.00 in
  •   

Regional Weather Roundup
for Boston, MA

        
000
ASUS41 KBOX 051210
RWRBOX

REGIONAL WEATHER ROUNDUP
NATIONAL WEATHER SERVICE BOSTON/NORTON MA
700 AM EST MON DEC 05 2022

NOTE:  "FAIR" INDICATES FEW OR NO CLOUDS BELOW 12,000 FEET WITH NO 
SIGNIFICANT WEATHER AND/OR OBSTRUCTIONS TO VISIBILITY.

MAZALL-051300-
EASTERN MASSACHUSETTS
  
CITY           SKY/WX    TMP DP  RH WIND       PRES   REMARKS
BOSTON         PTCLDY    32  24  72 S7        30.27R WCI  26          
6HR MIN TEMP:  29; 6HR MAX TEMP:  34;                                

BEVERLY        CLEAR     26  23  88 CALM      30.25R                  
LAWRENCE       CLEAR     26  20  77 S3        30.27R                  
BEDFORD        CLEAR     22  18  85 CALM      30.24R                  
NORWOOD        CLEAR     22  18  85 CALM      30.26R                  
MARSHFIELD       N/A     23  21  93 CALM      30.26R                  
PLYMOUTH       CLEAR     22  19  89 CALM      30.26R                  
TAUNTON          N/A    N/A N/A N/A MISG      30.26R                  
NEW BEDFORD    CLEAR     23  23 100 CALM      30.26R                  
$$

MAZALL-051300-
CAPE COD AND THE ISLANDS
  
CITY           SKY/WX    TMP DP  RH WIND       PRES   REMARKS
FALMOUTH       CLEAR     21  19  93 CALM      30.27R                  
HYANNIS        CLEAR     20  18  92 CALM      30.26R                  
CHATHAM        CLEAR     29  22  75 CALM      30.28R                  
PROVINCETOWN   CLEAR     28  26  92 S5        30.28R WCI  23          
NANTUCKET      CLEAR     29  24  82 E3        30.28R                  
MARTHAS VNYRD  CLEAR     19  15  84 CALM      30.27R                  
$$
 
MAZALL-051300-
CENTRAL AND WESTERN MASSACHUSETTS
  
CITY           SKY/WX    TMP DP  RH WIND       PRES   REMARKS
WORCESTER      CLEAR     29  20  69 SW9       30.20R WCI  20          
6HR MIN TEMP:  27; 6HR MAX TEMP:  31;                                

FITCHBURG      CLEAR     20  15  81 CALM      30.24R                  
ORANGE         CLEAR     18  15  88 CALM      30.23R                  
SPRINGFIELD    PTCLDY    18  16  92 CALM      30.22R                  
WESTFIELD      CLEAR     19  15  84 CALM      30.23R                  
NORTH ADAMS    CLEAR     20  18  92 CALM      30.20R                  
PITTSFIELD     CLEAR     18  15  88 CALM      30.16R                  
$$
 
RIZALL-051300-
RHODE ISLAND
  
CITY           SKY/WX    TMP DP  RH WIND       PRES   REMARKS
PROVIDENCE     PTCLDY    24  21  88 W5        30.27R WCI  18          
6HR MIN TEMP:  24; 6HR MAX TEMP:  28;                                

NEWPORT        CLEAR     29  26  89 SE5       30.25R WCI  24          
BLOCK ISLAND   CLEAR     37  26  64 S6        30.26R                  
SMITHFIELD     CLEAR     24  21  88 CALM      30.24R                  
WESTERLY       CLEAR     24  22  91 CALM      30.25R                  
$$
 
CTZALL-051300-
CONNECTICUT
  
CITY           SKY/WX    TMP DP  RH WIND       PRES   REMARKS
BRADLEY INTL   CLEAR     26  22  84 CALM      30.23R                  
6HR MIN TEMP:  21; 6HR MAX TEMP:  26;                                

HARTFORD       CLEAR     24  21  88 CALM      30.25R                  
BRIDGEPORT     CLEAR     27  24  89 CALM      30.25R                  
DANBURY        CLEAR     20  16  84 CALM      30.24R                  
GROTON         CLEAR     27  23  85 N5        30.25R WCI  22          
NEW HAVEN      CLEAR     25  22  88 CALM      30.25R                  
CHESTER        FAIR      28  25  86 CALM      30.24R                  
MERIDEN        CLEAR     21  17  84 CALM      30.25R                  
WILLIMANTIC    CLEAR     21  18  88 CALM      30.26R                  
OXFORD         CLEAR     28  21  75 CALM      30.22R                  
$$

MEZ002-015-021-024-NHZ003-005-008-011-012-014-VTZ005-008-051300-
NORTHERN NEW ENGLAND
  
CITY           SKY/WX    TMP DP  RH WIND       PRES   REMARKS
PORTLAND ME    PTCLDY    24  19  81 W3        30.24R                  
6HR MIN TEMP:  20; 6HR MAX TEMP:  24;                                

BANGOR ME      PTCLDY    23  18  81 CALM      30.23R                  
CONCORD NH     CLEAR     18  15  88 CALM      30.22R                  
MANCHESTER NH  CLEAR     22  18  85 CALM      30.22R                  
NASHUA NH      CLEAR     18  18 100 CALM      30.25R                  
PORTSMOUTH NH  PTCLDY    23  20  87 CALM      30.25R                  
JAFFREY NH     CLEAR     21  17  84 CALM      30.18R                  
KEENE NH       CLEAR     17  16  95 CALM        N/A                   
BURLINGTON VT  PTCLDY    32  20  61 S13G21    30.09F WCI  22          
MT. WASHINGTON PTCLDY    14   5  67 W54G60      N/A  WCI -12          
$$

NYZ052-076-051300-
EASTERN NEW YORK
  
CITY           SKY/WX    TMP DP  RH WIND       PRES   REMARKS
ALBANY         CLEAR     27  20  75 S7        30.19S WCI  19          
6HR MIN TEMP:  26; 6HR MAX TEMP:  31;                                

NEW YORK CITY  CLEAR     37  21  52 S5        30.25R                  
6HR MIN TEMP:  36; 6HR MAX TEMP:  40;                                

$$
 
ANZALL-051300-
MARINE OBSERVATIONS
  
STATION/POSITION TIME  TEMP    WIND        PRES    VSBY  WAVE
                       AIR SEA DIR/SP/G                  HT/PER
                 (UTC) (F)     (DEG/KT/KT) (MB)    (MI)  (FT/S)
BOSTON BUOY      1150          190/ 10/ 14 1025.2R         2/ 9
BUZZARDS BAY     1100   42     170/  6/  8 1024.7R
NANTUCKET SOUND  1150   43 49  160/  6/  6 1024.9R         0
MASS BAY-STELLWA 1004   42 50  200/ 10/ 12 1022.9S  1 7/8
ISLE OF SHOALS   1100   40     210/ 17/ 19 1023.0R
S OF BLOCK IS    1156      55                N/A           2/ 9
$$

......................KEY.........................
  SKY/WX - SKY CONDITION/PRESENT WEATHER
  TMP    - TEMPERATURE IN FAHRENHEIT
  DWPT   - DEWPOINT IN FAHRENHEIT
  RH     - RELATIVE HUMIDITY IN PERCENT
  WIND   - DIRECTION AND SPEED IN MPH
  PRES   - MEAN SEA LEVEL PRESSURE IN INCHES OF HG
  WCI    - WIND CHILL INDEX
  VSB    - VISIBILITY IN MILES
  HX     - HEAT INDEX
  TC     - TEMPERATURE IN CELSIUS
  VRB    - VARIABLE WIND DIRECTION
  N/A    - NOT AVAILABLE
  
      

Other recent Regional Weather Roundups

Thu Dec 8, 2:10pm

Thu Dec 8, 1:10pm

Thu Dec 8, 12:10pm

Thu Dec 8, 11:10am

Thu Dec 8, 10:10am

Thu Dec 8, 9:10am

Thu Dec 8, 8:10am

Thu Dec 8, 7:10am

Thu Dec 8, 6:10am

Thu Dec 8, 5:10am

Thu Dec 8, 4:10am

Thu Dec 8, 3:10am

Thu Dec 8, 2:10am

Thu Dec 8, 1:10am

Thu Dec 8, 12:10am

Wed Dec 7, 11:10pm

Wed Dec 7, 10:10pm

Wed Dec 7, 9:10pm

Wed Dec 7, 8:10pm

Wed Dec 7, 7:10pm

Wed Dec 7, 6:10pm

Wed Dec 7, 5:10pm

Wed Dec 7, 4:10pm

Wed Dec 7, 3:10pm

Wed Dec 7, 2:10pm

Wed Dec 7, 1:10pm

Wed Dec 7, 12:10pm

Wed Dec 7, 11:10am

Wed Dec 7, 10:10am

Wed Dec 7, 9:10am

Wed Dec 7, 8:10am

Wed Dec 7, 7:10am

Wed Dec 7, 6:10am

Wed Dec 7, 5:10am

Wed Dec 7, 4:10am

Wed Dec 7, 3:10am

Wed Dec 7, 2:10am

Wed Dec 7, 1:10am

Wed Dec 7, 12:10am

Tue Dec 6, 11:10pm

Tue Dec 6, 10:10pm

Tue Dec 6, 9:10pm

Tue Dec 6, 8:10pm

Tue Dec 6, 7:10pm

Tue Dec 6, 6:10pm

Tue Dec 6, 5:10pm

Tue Dec 6, 4:10pm

Tue Dec 6, 3:10pm

Tue Dec 6, 2:10pm

Tue Dec 6, 1:10pm

Tue Dec 6, 12:10pm

Tue Dec 6, 11:10am

Tue Dec 6, 10:10am

Tue Dec 6, 9:10am

Tue Dec 6, 8:10am

Tue Dec 6, 7:10am

Tue Dec 6, 6:10am

Tue Dec 6, 5:10am

Tue Dec 6, 4:10am

Tue Dec 6, 3:10am

Tue Dec 6, 2:10am

Tue Dec 6, 1:10am

Tue Dec 6, 12:10am

Mon Dec 5, 11:10pm

Mon Dec 5, 10:10pm

Mon Dec 5, 9:10pm

Mon Dec 5, 8:10pm

Mon Dec 5, 7:10pm

Mon Dec 5, 6:10pm

Mon Dec 5, 5:10pm

Mon Dec 5, 4:10pm

Mon Dec 5, 3:10pm

Mon Dec 5, 2:10pm

Mon Dec 5, 1:10pm

Mon Dec 5, 12:10pm

Mon Dec 5, 11:10am

Mon Dec 5, 10:10am

Mon Dec 5, 9:10am

Mon Dec 5, 8:10am

Mon Dec 5, 6:10am

Mon Dec 5, 5:10am

Mon Dec 5, 4:10am

Mon Dec 5, 3:10am

Mon Dec 5, 2:10am

Mon Dec 5, 1:10am

Mon Dec 5, 12:10am

Sun Dec 4, 11:10pm

Sun Dec 4, 10:10pm

Sun Dec 4, 9:10pm

Sun Dec 4, 8:10pm

Sun Dec 4, 7:10pm

Sun Dec 4, 6:10pm

Sun Dec 4, 5:10pm

Sun Dec 4, 4:10pm

Sun Dec 4, 3:10pm

Sun Dec 4, 2:10pm

Sun Dec 4, 1:10pm

Sun Dec 4, 12:10pm

Sun Dec 4, 11:10am

Sun Dec 4, 10:10am

Sun Dec 4, 9:10am

Sun Dec 4, 8:10am

Sun Dec 4, 7:10am

Sun Dec 4, 6:10am

Sun Dec 4, 5:10am

Sun Dec 4, 4:10am

Sun Dec 4, 3:10am

Sun Dec 4, 2:10am

Sun Dec 4, 1:10am

Sun Dec 4, 12:10am

Sat Dec 3, 11:10pm

Sat Dec 3, 10:10pm

Sat Dec 3, 9:10pm

Sat Dec 3, 8:10pm

Sat Dec 3, 7:10pm

Sat Dec 3, 6:10pm

Sat Dec 3, 5:10pm

Sat Dec 3, 4:10pm

Sat Dec 3, 3:10pm

Sat Dec 3, 2:10pm

Sat Dec 3, 1:10pm

Sat Dec 3, 12:10pm

Sat Dec 3, 11:10am

Sat Dec 3, 10:10am

Sat Dec 3, 9:10am

Sat Dec 3, 8:10am

Sat Dec 3, 7:10am

Sat Dec 3, 6:10am

Sat Dec 3, 5:10am

Sat Dec 3, 4:10am

Sat Dec 3, 3:10am

Sat Dec 3, 2:10am

Sat Dec 3, 1:10am

Sat Dec 3, 12:10am

Fri Dec 2, 11:10pm

Fri Dec 2, 10:10pm

Fri Dec 2, 9:10pm

Fri Dec 2, 8:10pm

Fri Dec 2, 7:10pm

Fri Dec 2, 6:10pm

Fri Dec 2, 5:10pm

Fri Dec 2, 4:10pm

Fri Dec 2, 3:10pm

Fri Dec 2, 2:10pm

Fri Dec 2, 1:10pm

Fri Dec 2, 12:10pm

Fri Dec 2, 11:10am

Fri Dec 2, 10:10am

Fri Dec 2, 9:10am

Fri Dec 2, 8:10am

Fri Dec 2, 7:10am

Fri Dec 2, 6:10am

Fri Dec 2, 5:10am

Fri Dec 2, 4:10am

Fri Dec 2, 3:10am

Fri Dec 2, 2:10am

Fri Dec 2, 1:10am

Fri Dec 2, 12:10am

Thu Dec 1, 11:10pm

Thu Dec 1, 10:10pm

Thu Dec 1, 9:10pm

Thu Dec 1, 8:10pm

Thu Dec 1, 7:10pm

Thu Dec 1, 6:10pm

Thu Dec 1, 5:10pm

Thu Dec 1, 4:10pm

Thu Dec 1, 3:10pm

Meta data:

ID: 32142bd3-3a25-4f73-8c6d-109acfb639f7
Link: https://api.weather.gov/products/32142bd3-3a25-4f73-8c6d-109acfb639f7